Showing default

LARES, 38077

Orbit data source: Space-Track

LARES, 38077 is a payload satellite owned by ASI (IT) in LEO that was launched on Mon, 13 Feb 2012 UTC via a VEGA launch vehicle from the French Guiana (FRGUI). Payload-class satellites include a variety of spacecraft equipped with specific instruments for various scientific and technological missions. These include communications satellites like Starlink; space stations such as the ISS; scientific satellites like the Hubble; Earth observation satellites from companies like Planet Labs, Umbra, and HawkEye 360; GPS; miniature CubeSats for education and research; and military/defense satellites.

Loading next visibility...
Identifier
38077, 2012-006A
Orbit
LEO
Country
Flag of ITIT
Related business
Manufacturer
CGS
Mission
Operational Civil Technology
Bus & Motor
LARES, Unknown motor
Mass
400 kg wet, 400 kg dry
Launch date (UTC)
2012-02-13 (14 years ago)
Launch vehicle
VEGA
Launch site
French Guiana (FRGUI)
Object type
Payload
Rocket body
Debris
Shape & HBR
Sphere, 0.2 m
Radar Cross Section
0.126 m², Small (<0.1 m²)

Expand to show TLE details & history
Last TLE update: 6 hours ago

TLE from 6 hours ago
0 LARES
1 38077U 12006A   25343.44075491 -.00000020  00000-0  11649-3 0  9992
2 38077  69.4912 256.3482 0010763 231.3235 128.6829 12.54932066633268
Epoch: 2025-12-09T10:34Z
TLE epoch observation values (Epoch: 2025-12-09T10:34:41.224Z)
Latitude
-0.00003°
Longitude
19.25103°
Altitude
1,451.322 km
Speed
7.134 km/s
True Right ascension
17h 05m 23s
True Declination
0° 00' 00"
Sunlit
Object was in daylight at epoch
Visualization orbit readout
Latitude
Unknown
Longitude
Unknown
Altitude
Unknown
Speed
Unknown
Apparent Right ascension
Unknown
Apparent Declination
Unknown
Sunlit
N/A
Visualization observer readout
Local Sidereal Time
14:57:08
Azimuth
Unknown
Elevation
Unknown
Doppler factor
Unknown
Orbital elements
Apogee altitude
1,450.577 km
Perigee altitude
1,433.743 km
Semi-major axis
7,820.297 km
Eccentricity
0.00108
Inclination
69.4912°
RAAN
256.3482°
Arg. of periapsis
231.3235°
True anomaly
128.7791°
Mean anomaly
128.6829°
Eccentric anomaly
128.73101°
Mean motion
3.1384 °/min
Orbital period
114.71 mins
BSTAR
0.00011649
Loading maneuver chart data...
Computing Atmospheric mass density...
Loading historical data...
Loading historical data...
Loading historical data...
Loading historical data...
Loading historical data...
Loading historical data...
Loading historical data...

Documentation

Showing up to 5 results
|